BAW28Y LEAS-EGCC

Flight info

Callsign BAW28Y
Flight time 1h 52m
Altitude 38000
Route MAVOS M30 LOTEE DCT EKDAP DCT NTS UY110 REN UN862 UPALO UP87 ROXOG L982 VASUX UN867 AVANT UM184 HEMEL T420 AKUPA UY250 LESTA
Aircraft A20N/M-SDE2E3FGHIRWXY/LB1

Departure

Time 2026-04-26 16:18
Airport Asturias Airport (LEAS)

Arrival

Time 2026-04-26 18:11
Airport Manchester Airport (EGCC)
Time Latitude Longitude Altitude Speed Heading
2026-04-26 15:52 43.56028 -6.03342 429 ft 0 kts 197°
2026-04-26 16:11 43.56027 -6.03342 429 ft 0 kts 201°
2026-04-26 16:12 43.56024 -6.03355 429 ft 3 kts 266°
2026-04-26 16:12 43.56057 -6.03359 428 ft 9 kts 41°
2026-04-26 16:12 43.56130 -6.03239 424 ft 11 kts 321°
2026-04-26 16:13 43.56165 -6.03355 423 ft 15 kts 287°
2026-04-26 16:13 43.56200 -6.03501 425 ft 17 kts 289°
2026-04-26 16:13 43.56239 -6.03666 423 ft 18 kts 288°
2026-04-26 16:13 43.56282 -6.03849 418 ft 21 kts 288°
2026-04-26 16:14 43.56332 -6.04057 411 ft 24 kts 288°
2026-04-26 16:14 43.56388 -6.04293 402 ft 27 kts 287°
2026-04-26 16:14 43.56506 -6.04696 374 ft 11 kts 326°
2026-04-26 16:15 43.56538 -6.04723 372 ft 0 kts 334°
2026-04-26 16:15 43.56540 -6.04724 372 ft 1 kts 334°
2026-04-26 16:16 43.56620 -6.04755 371 ft 8 kts 10°
2026-04-26 16:16 43.56646 -6.04732 375 ft 0 kts 62°
2026-04-26 16:16 43.56650 -6.04710 378 ft 3 kts 89°
2026-04-26 16:16 43.56643 -6.04674 382 ft 0 kts 107°
2026-04-26 16:17 43.56643 -6.04673 382 ft 0 kts 108°
2026-04-26 16:17 43.56642 -6.04669 382 ft 4 kts 108°
2026-04-26 16:17 43.56550 -6.04283 401 ft 79 kts 108°
2026-04-26 16:17 43.56311 -6.03262 420 ft 143 kts 108°
2026-04-26 16:18 43.55970 -6.01867 804 ft 159 kts 107°
2026-04-26 16:18 43.55294 -5.99010 2220 ft 155 kts 105°
2026-04-26 16:19 43.54600 -5.95986 2999 ft 186 kts 105°
2026-04-26 16:19 43.54180 -5.94171 3338 ft 209 kts 106°
2026-04-26 16:19 43.53283 -5.90014 4322 ft 244 kts 92°
2026-04-26 16:20 43.53651 -5.87727 4865 ft 257 kts 59°
2026-04-26 16:20 43.56705 -5.85366 6337 ft 271 kts 357°
2026-04-26 16:20 43.58471 -5.86155 7119 ft 277 kts 324°
2026-04-26 16:21 43.59715 -5.88163 7961 ft 281 kts 300°
2026-04-26 16:21 43.60744 -5.90419 8779 ft 283 kts 313°
2026-04-26 16:21 43.62378 -5.91849 9553 ft 285 kts 344°
2026-04-26 16:21 43.64331 -5.92167 10346 ft 287 kts 359°
2026-04-26 16:22 43.66369 -5.92140 10948 ft 297 kts
2026-04-26 16:22 43.68496 -5.92096 11326 ft 314 kts 359°
2026-04-26 16:22 43.70728 -5.92100 11691 ft 329 kts 359°
2026-04-26 16:22 43.73024 -5.92143 12318 ft 335 kts 358°
2026-04-26 16:23 43.75370 -5.92212 13062 ft 338 kts 358°
2026-04-26 16:23 43.77703 -5.92293 13732 ft 342 kts 357°
2026-04-26 16:23 43.80100 -5.92385 14393 ft 347 kts 357°
2026-04-26 16:23 43.82509 -5.92483 15011 ft 351 kts 357°
2026-04-26 16:24 43.84971 -5.92586 15682 ft 355 kts 357°
2026-04-26 16:24 43.87437 -5.92687 16306 ft 359 kts 357°
2026-04-26 16:24 43.89949 -5.92792 16909 ft 364 kts 357°
2026-04-26 16:24 43.92471 -5.92899 17490 ft 367 kts 357°
2026-04-26 16:25 43.95037 -5.93006 18108 ft 371 kts 357°
2026-04-26 16:25 43.97641 -5.93116 18686 ft 375 kts 357°
2026-04-26 16:25 44.00232 -5.93225 19260 ft 378 kts 357°
2026-04-26 16:25 44.02879 -5.93334 19819 ft 382 kts 357°
2026-04-26 16:26 44.05539 -5.93300 20353 ft 386 kts
2026-04-26 16:26 44.08239 -5.93020 20901 ft 390 kts
2026-04-26 16:26 44.10939 -5.92605 21433 ft 393 kts
2026-04-26 16:26 44.13657 -5.92160 21941 ft 397 kts
2026-04-26 16:27 44.16410 -5.91708 22425 ft 401 kts
2026-04-26 16:27 44.19185 -5.91255 22917 ft 404 kts
2026-04-26 16:27 44.21961 -5.90803 23396 ft 407 kts
2026-04-26 16:27 44.24816 -5.90341 23883 ft 410 kts
2026-04-26 16:28 44.27634 -5.89885 24349 ft 413 kts
2026-04-26 16:28 44.30489 -5.89421 24800 ft 416 kts
2026-04-26 16:28 44.33371 -5.88955 25213 ft 420 kts
2026-04-26 16:28 44.36279 -5.88485 25625 ft 423 kts
2026-04-26 16:29 44.39223 -5.88008 26030 ft 426 kts
2026-04-26 16:29 44.42146 -5.87533 26430 ft 429 kts
2026-04-26 16:29 44.45123 -5.87048 26831 ft 432 kts
2026-04-26 16:29 44.48088 -5.86564 27226 ft 434 kts
2026-04-26 16:30 44.51089 -5.86075 27600 ft 436 kts
2026-04-26 16:30 44.54111 -5.85579 27969 ft 439 kts
2026-04-26 16:30 44.57167 -5.85079 28337 ft 441 kts
2026-04-26 16:30 44.60225 -5.84580 28697 ft 444 kts
2026-04-26 16:31 44.63233 -5.83800 29013 ft 449 kts 14°
2026-04-26 16:31 44.66170 -5.82137 29340 ft 454 kts 26°
2026-04-26 16:31 44.68781 -5.79690 29653 ft 458 kts 39°
2026-04-26 16:31 44.71115 -5.76610 30005 ft 460 kts 44°
2026-04-26 16:32 44.73370 -5.73399 30312 ft 463 kts 44°
2026-04-26 16:32 44.75618 -5.70163 30621 ft 465 kts 45°
2026-04-26 16:32 44.77864 -5.66943 30916 ft 467 kts 44°
2026-04-26 16:32 44.80145 -5.63689 31231 ft 468 kts 44°
2026-04-26 16:33 44.82426 -5.60447 31641 ft 467 kts 44°
2026-04-26 16:33 44.84707 -5.57212 32060 ft 465 kts 44°
2026-04-26 16:33 44.86990 -5.53975 32447 ft 464 kts 44°
2026-04-26 16:33 44.89258 -5.50756 32796 ft 464 kts 44°
2026-04-26 16:34 44.91522 -5.47542 33095 ft 464 kts 44°
2026-04-26 16:34 44.93771 -5.44344 33164 ft 464 kts 44°
2026-04-26 16:34 44.96063 -5.41084 33422 ft 465 kts 44°
2026-04-26 16:34 44.98315 -5.37875 33832 ft 462 kts 44°
2026-04-26 16:35 45.00556 -5.34681 34154 ft 461 kts 45°
2026-04-26 16:35 45.02803 -5.31472 34174 ft 460 kts 45°
2026-04-26 16:35 45.07290 -5.25050 34441 ft 462 kts 45°
2026-04-26 16:36 45.09556 -5.21800 34762 ft 460 kts 45°
2026-04-26 16:36 45.11791 -5.18592 35040 ft 458 kts 45°
2026-04-26 16:36 45.14016 -5.15394 35258 ft 458 kts 45°
2026-04-26 16:36 45.16226 -5.12214 35447 ft 458 kts 45°
2026-04-26 16:37 45.18475 -5.08974 35639 ft 458 kts 45°
2026-04-26 16:37 45.20708 -5.05754 35849 ft 457 kts 45°
2026-04-26 16:37 45.22913 -5.02569 36071 ft 456 kts 45°
2026-04-26 16:37 45.25144 -4.99340 36274 ft 455 kts 45°
2026-04-26 16:38 45.27338 -4.96164 36457 ft 455 kts 45°
2026-04-26 16:38 45.29561 -4.92944 36649 ft 455 kts 44°
2026-04-26 16:38 45.31729 -4.89691 36880 ft 454 kts 47°
2026-04-26 16:38 45.33793 -4.86313 37114 ft 454 kts 49°
2026-04-26 16:39 45.35809 -4.82927 37307 ft 454 kts 49°
2026-04-26 16:39 45.37846 -4.79483 37505 ft 453 kts 49°
2026-04-26 16:39 45.39861 -4.76071 37693 ft 453 kts 49°
2026-04-26 16:39 45.41867 -4.72672 37872 ft 453 kts 49°
2026-04-26 16:40 45.43887 -4.69249 38057 ft 453 kts 49°
2026-04-26 16:40 45.45911 -4.65819 38170 ft 453 kts 49°
2026-04-26 16:40 45.49966 -4.58935 38171 ft 453 kts 48°
2026-04-26 16:41 45.53989 -4.52092 38176 ft 453 kts 48°
2026-04-26 16:41 45.58015 -4.45227 38176 ft 453 kts 48°
2026-04-26 16:42 45.62035 -4.38355 38177 ft 452 kts 49°
2026-04-26 16:42 45.66062 -4.31455 38175 ft 453 kts 49°
2026-04-26 16:43 45.70065 -4.24577 38177 ft 452 kts 49°
2026-04-26 16:43 45.74082 -4.17661 38180 ft 452 kts 49°
2026-04-26 16:44 45.78088 -4.10744 38183 ft 452 kts 49°
2026-04-26 16:44 45.82081 -4.03834 38186 ft 452 kts 49°
2026-04-26 16:45 45.86075 -3.96902 38183 ft 451 kts 49°
2026-04-26 16:45 45.90044 -3.89996 38179 ft 451 kts 49°
2026-04-26 16:46 45.94019 -3.83066 38179 ft 451 kts 49°
2026-04-26 16:46 45.97998 -3.76112 38185 ft 451 kts 49°
2026-04-26 16:47 46.01957 -3.69174 38184 ft 450 kts 49°
2026-04-26 16:47 46.05918 -3.62215 38183 ft 450 kts 49°
2026-04-26 16:48 46.09858 -3.55278 38182 ft 450 kts 49°
2026-04-26 16:48 46.13817 -3.48290 38185 ft 450 kts 49°
2026-04-26 16:49 46.17761 -3.41307 38184 ft 450 kts 49°
2026-04-26 16:49 46.21685 -3.34345 38186 ft 449 kts 50°
2026-04-26 16:50 46.25618 -3.27349 38184 ft 448 kts 50°
2026-04-26 16:50 46.29539 -3.20353 38185 ft 448 kts 50°
2026-04-26 16:51 46.33421 -3.13414 38182 ft 447 kts 50°
2026-04-26 16:51 46.37321 -3.06423 38183 ft 447 kts 50°
2026-04-26 16:52 46.40575 -3.00578 38188 ft 447 kts 50°
2026-04-26 16:52 46.45103 -2.92425 38190 ft 447 kts 50°
2026-04-26 16:53 46.48981 -2.85420 38187 ft 448 kts 50°
2026-04-26 16:53 46.52873 -2.78371 38187 ft 447 kts 50°
2026-04-26 16:54 46.56755 -2.71323 38191 ft 446 kts 50°
2026-04-26 16:54 46.60516 -2.64480 38190 ft 446 kts 50°
2026-04-26 16:55 46.64355 -2.57476 38187 ft 446 kts 50°
2026-04-26 16:55 46.68223 -2.50402 38190 ft 446 kts 50°
2026-04-26 16:56 46.73991 -2.39818 38185 ft 445 kts 50°
2026-04-26 16:57 46.77803 -2.32800 38184 ft 445 kts 50°
2026-04-26 16:57 46.83563 -2.22162 38189 ft 446 kts 50°
2026-04-26 16:58 46.86744 -2.16270 38188 ft 445 kts 50°
2026-04-26 16:59 46.93153 -2.04360 38182 ft 444 kts 50°
2026-04-26 17:00 47.00760 -1.90152 38187 ft 444 kts 50°
2026-04-26 17:00 47.06460 -1.79452 38191 ft 444 kts 50°
2026-04-26 17:01 47.10268 -1.72375 38181 ft 443 kts 46°
2026-04-26 17:01 47.14992 -1.66624 38175 ft 439 kts 27°
2026-04-26 17:02 47.20560 -1.63319 38181 ft 433 kts
2026-04-26 17:02 47.26482 -1.62583 38178 ft 427 kts 353°
2026-04-26 17:03 47.32376 -1.63406 38177 ft 425 kts 351°
2026-04-26 17:03 47.38252 -1.64284 38182 ft 426 kts 351°
2026-04-26 17:04 47.44146 -1.65131 38183 ft 426 kts 351°
2026-04-26 17:04 47.50023 -1.65967 38182 ft 426 kts 351°
2026-04-26 17:05 47.55906 -1.66804 38184 ft 427 kts 351°
2026-04-26 17:05 47.61811 -1.67648 38185 ft 427 kts 351°
2026-04-26 17:06 47.67728 -1.68495 38186 ft 427 kts 351°
2026-04-26 17:06 47.73615 -1.69338 38188 ft 427 kts 351°
2026-04-26 17:07 47.79534 -1.70190 38187 ft 427 kts 351°
2026-04-26 17:07 47.85461 -1.71046 38189 ft 427 kts 351°
2026-04-26 17:08 47.91392 -1.71900 38188 ft 427 kts 351°
2026-04-26 17:08 47.97301 -1.72754 38189 ft 428 kts 351°
2026-04-26 17:09 48.02213 -1.73466 38191 ft 428 kts 351°
2026-04-26 17:09 48.09134 -1.74192 38195 ft 429 kts 356°
2026-04-26 17:10 48.15083 -1.74281 38197 ft 429 kts 356°
2026-04-26 17:10 48.21048 -1.74338 38196 ft 430 kts 356°
2026-04-26 17:11 48.27009 -1.74403 38196 ft 429 kts 356°
2026-04-26 17:11 48.33025 -1.74475 38198 ft 430 kts 356°
2026-04-26 17:12 48.41967 -1.74582 38196 ft 431 kts 356°
2026-04-26 17:13 48.50975 -1.74690 38196 ft 430 kts 356°
2026-04-26 17:14 48.59917 -1.74797 38196 ft 430 kts 356°
2026-04-26 17:14 48.68901 -1.74907 38200 ft 430 kts 356°
2026-04-26 17:15 48.77817 -1.75015 38198 ft 430 kts 356°
2026-04-26 17:16 48.83799 -1.75086 38200 ft 430 kts 356°
2026-04-26 17:16 48.89748 -1.75160 38203 ft 430 kts 356°
2026-04-26 17:17 48.95761 -1.75059 38206 ft 431 kts 358°
2026-04-26 17:17 49.01723 -1.74801 38207 ft 431 kts 358°
2026-04-26 17:18 49.07722 -1.74556 38208 ft 432 kts 358°
2026-04-26 17:18 49.13734 -1.74319 38213 ft 432 kts 358°
2026-04-26 17:19 49.22687 -1.73974 38216 ft 432 kts 358°
2026-04-26 17:19 49.28699 -1.73742 38221 ft 432 kts 358°
2026-04-26 17:20 49.33691 -1.73550 38220 ft 431 kts 358°
2026-04-26 17:20 49.40681 -1.73280 38222 ft 431 kts 358°
2026-04-26 17:21 49.46675 -1.73046 38225 ft 431 kts 358°
2026-04-26 17:21 49.52631 -1.72815 38227 ft 431 kts 358°
2026-04-26 17:22 49.58641 -1.72579 38229 ft 432 kts 358°
2026-04-26 17:22 49.64629 -1.72178 38235 ft 432 kts 360°
2026-04-26 17:23 49.70600 -1.71644 38240 ft 432 kts 360°
2026-04-26 17:23 49.76586 -1.71126 38241 ft 432 kts 360°
2026-04-26 17:24 49.82564 -1.70616 38241 ft 431 kts 360°
2026-04-26 17:24 49.88547 -1.70107 38240 ft 432 kts 360°
2026-04-26 17:25 49.94519 -1.69590 38239 ft 433 kts
2026-04-26 17:25 50.00497 -1.68403 38242 ft 435 kts
2026-04-26 17:26 50.06375 -1.66111 38248 ft 437 kts 14°
2026-04-26 17:26 50.12138 -1.63292 38250 ft 438 kts 14°
2026-04-26 17:27 50.17971 -1.60434 38251 ft 438 kts 14°
2026-04-26 17:27 50.23643 -1.57056 38253 ft 440 kts 22°
2026-04-26 17:28 50.29004 -1.52494 38252 ft 442 kts 30°
2026-04-26 17:28 50.33969 -1.46791 38257 ft 444 kts 37°
2026-04-26 17:29 50.37872 -1.41689 38257 ft 444 kts 37°
2026-04-26 17:29 50.43406 -1.34422 38260 ft 444 kts 38°
2026-04-26 17:30 50.48117 -1.28276 38258 ft 443 kts 37°
2026-04-26 17:30 50.53062 -1.22661 38258 ft 441 kts 30°
2026-04-26 17:31 50.58249 -1.17513 38258 ft 441 kts 29°
2026-04-26 17:31 50.63396 -1.12428 38264 ft 440 kts 30°
2026-04-26 17:32 50.68556 -1.07293 38259 ft 440 kts 30°
2026-04-26 17:32 50.73730 -1.02119 38263 ft 440 kts 30°
2026-04-26 17:33 50.78915 -0.97057 38265 ft 438 kts 26°
2026-04-26 17:34 50.87161 -0.91148 38265 ft 434 kts 15°
2026-04-26 17:34 50.92867 -0.88169 38265 ft 433 kts 14°
2026-04-26 17:35 50.98581 -0.85236 38266 ft 434 kts 14°
2026-04-26 17:35 51.04310 -0.82272 38266 ft 434 kts 14°
2026-04-26 17:36 51.09994 -0.79317 38270 ft 433 kts 14°
2026-04-26 17:36 51.15699 -0.76342 38274 ft 433 kts 14°
2026-04-26 17:37 51.21423 -0.73347 38276 ft 433 kts 14°
2026-04-26 17:37 51.27144 -0.70347 38275 ft 433 kts 15°
2026-04-26 17:38 51.35721 -0.65829 38278 ft 433 kts 15°
2026-04-26 17:38 51.41422 -0.62819 38276 ft 433 kts 14°
2026-04-26 17:39 51.47100 -0.59811 38274 ft 433 kts 14°
2026-04-26 17:39 51.52814 -0.56776 38271 ft 432 kts 14°
2026-04-26 17:40 51.57563 -0.54247 38270 ft 432 kts 14°
2026-04-26 17:40 51.64178 -0.50716 38268 ft 432 kts 14°
2026-04-26 17:41 51.69873 -0.47665 38274 ft 432 kts 14°
2026-04-26 17:41 51.75648 -0.45139 38271 ft 427 kts
2026-04-26 17:42 51.81492 -0.45306 38273 ft 420 kts 346°
2026-04-26 17:42 51.86972 -0.48188 38153 ft 414 kts 329°
2026-04-26 17:43 51.89463 -0.50453 37826 ft 411 kts 326°
2026-04-26 17:43 51.91869 -0.52824 37445 ft 407 kts 325°
2026-04-26 17:43 51.94250 -0.55192 37012 ft 404 kts 325°
2026-04-26 17:43 51.96648 -0.57555 36525 ft 403 kts 325°
2026-04-26 17:44 51.99050 -0.59913 35983 ft 405 kts 325°
2026-04-26 17:44 52.01434 -0.62249 35398 ft 408 kts 325°
2026-04-26 17:44 52.03874 -0.64641 34775 ft 411 kts 325°
2026-04-26 17:44 52.06318 -0.67041 34041 ft 413 kts 325°
2026-04-26 17:45 52.08757 -0.69439 33371 ft 414 kts 325°
2026-04-26 17:45 52.11240 -0.71883 32706 ft 415 kts 325°
2026-04-26 17:45 52.13694 -0.74301 32056 ft 415 kts 325°
2026-04-26 17:45 52.16130 -0.76702 31416 ft 415 kts 325°
2026-04-26 17:46 52.18583 -0.79126 30749 ft 415 kts 325°
2026-04-26 17:46 52.21057 -0.81574 30074 ft 415 kts 325°
2026-04-26 17:46 52.23525 -0.84018 29405 ft 416 kts 326°
2026-04-26 17:46 52.25972 -0.86445 28933 ft 411 kts 326°
2026-04-26 17:47 52.28392 -0.88846 28474 ft 407 kts 326°
2026-04-26 17:47 52.29980 -0.90422 28158 ft 404 kts 326°
2026-04-26 17:47 52.33144 -0.93570 27516 ft 400 kts 326°
2026-04-26 17:47 52.35517 -0.95936 27024 ft 397 kts 326°
2026-04-26 17:48 52.37858 -0.98272 26535 ft 394 kts 326°
2026-04-26 17:48 52.40198 -1.00610 26060 ft 392 kts 326°
2026-04-26 17:48 52.42501 -1.02917 25561 ft 390 kts 326°
2026-04-26 17:48 52.44815 -1.05235 25071 ft 388 kts 326°
2026-04-26 17:49 52.47164 -1.07336 24576 ft 389 kts 335°
2026-04-26 17:49 52.49740 -1.08586 24094 ft 391 kts 347°
2026-04-26 17:49 52.52456 -1.08900 23610 ft 393 kts 359°
2026-04-26 17:49 52.55196 -1.08721 23118 ft 393 kts
2026-04-26 17:50 52.57901 -1.08475 22644 ft 391 kts
2026-04-26 17:50 52.60614 -1.08233 22177 ft 389 kts
2026-04-26 17:50 52.63313 -1.08007 21715 ft 387 kts
2026-04-26 17:50 52.65998 -1.07797 21249 ft 385 kts
2026-04-26 17:51 52.68670 -1.07594 20801 ft 383 kts
2026-04-26 17:51 52.71353 -1.07411 20392 ft 379 kts 358°
2026-04-26 17:51 52.73883 -1.08146 20256 ft 364 kts 334°
2026-04-26 17:51 52.75898 -1.10370 20257 ft 341 kts 312°
2026-04-26 17:52 52.77430 -1.13231 20250 ft 324 kts 308°
2026-04-26 17:52 52.78865 -1.16029 20088 ft 314 kts 308°
2026-04-26 17:52 52.80270 -1.18756 19792 ft 310 kts 308°
2026-04-26 17:52 52.81663 -1.21443 19477 ft 305 kts 308°
2026-04-26 17:53 52.83044 -1.24093 19176 ft 301 kts 308°
2026-04-26 17:53 52.84395 -1.26675 18885 ft 296 kts 308°
2026-04-26 17:53 52.85732 -1.29229 18593 ft 292 kts 309°
2026-04-26 17:54 52.88350 -1.34228 18028 ft 284 kts 309°
2026-04-26 17:54 52.89626 -1.36668 17755 ft 279 kts 309°
2026-04-26 17:54 52.90882 -1.39066 17483 ft 275 kts 309°
2026-04-26 17:54 52.92139 -1.41472 17188 ft 273 kts 309°
2026-04-26 17:55 52.93375 -1.43839 16865 ft 272 kts 309°
2026-04-26 17:55 52.94591 -1.46171 16514 ft 269 kts 309°
2026-04-26 17:55 52.95816 -1.48518 16047 ft 271 kts 309°
2026-04-26 17:55 52.97046 -1.50877 15574 ft 270 kts 309°
2026-04-26 17:56 52.98261 -1.53213 15136 ft 267 kts 309°
2026-04-26 17:56 53.00650 -1.57809 14302 ft 263 kts 309°
2026-04-26 17:57 53.03009 -1.62361 13474 ft 259 kts 309°
2026-04-26 17:57 53.04187 -1.64637 12885 ft 264 kts 310°
2026-04-26 17:57 53.05400 -1.66983 12257 ft 277 kts 309°
2026-04-26 17:57 53.06694 -1.69485 11923 ft 288 kts 309°
2026-04-26 17:58 53.10589 -1.77021 10965 ft 285 kts 309°
2026-04-26 17:59 53.13147 -1.81982 10294 ft 282 kts 309°
2026-04-26 17:59 53.14423 -1.84461 9954 ft 281 kts 309°
2026-04-26 17:59 53.15688 -1.86919 9611 ft 279 kts 309°
2026-04-26 17:59 53.16945 -1.89367 9268 ft 278 kts 309°
2026-04-26 18:00 53.18190 -1.91799 8931 ft 277 kts 309°
2026-04-26 18:00 53.19430 -1.94221 8598 ft 275 kts 309°
2026-04-26 18:00 53.20658 -1.96623 8312 ft 273 kts 309°
2026-04-26 18:00 53.21898 -1.99047 8261 ft 273 kts 309°
2026-04-26 18:01 53.23126 -2.01425 8255 ft 273 kts 312°
2026-04-26 18:01 53.24686 -2.03192 8231 ft 276 kts 343°
2026-04-26 18:01 53.26599 -2.03433 8012 ft 279 kts
2026-04-26 18:01 53.28501 -2.02942 7766 ft 277 kts
2026-04-26 18:02 53.30386 -2.02441 7468 ft 273 kts
2026-04-26 18:02 53.31628 -2.02163 7250 ft 270 kts
2026-04-26 18:02 53.34062 -2.01545 6845 ft 260 kts 19°
2026-04-26 18:02 53.35563 -1.99944 6643 ft 254 kts 44°
2026-04-26 18:03 53.36749 -1.97772 6448 ft 254 kts 49°
2026-04-26 18:03 53.37873 -1.95503 6246 ft 254 kts 50°
2026-04-26 18:03 53.38977 -1.93235 6040 ft 249 kts 50°
2026-04-26 18:03 53.40055 -1.91014 5839 ft 243 kts 50°
2026-04-26 18:04 53.41109 -1.88888 5637 ft 237 kts 44°
2026-04-26 18:04 53.42484 -1.87534 5408 ft 228 kts
2026-04-26 18:04 53.43985 -1.87911 5211 ft 218 kts 330°
2026-04-26 18:05 53.45879 -1.91554 4646 ft 211 kts 296°
2026-04-26 18:05 53.46571 -1.93735 4300 ft 214 kts 297°
2026-04-26 18:05 53.47297 -1.95939 3971 ft 215 kts 297°
2026-04-26 18:05 53.48017 -1.98105 3641 ft 212 kts 291°
2026-04-26 18:06 53.48179 -2.00387 3457 ft 193 kts 248°
2026-04-26 18:06 53.47552 -2.02317 3482 ft 184 kts 233°
2026-04-26 18:06 53.46778 -2.04005 3469 ft 182 kts 230°
2026-04-26 18:06 53.45974 -2.05653 3350 ft 183 kts 230°
2026-04-26 18:07 53.45172 -2.07284 3081 ft 182 kts 230°
2026-04-26 18:07 53.44376 -2.08911 2820 ft 181 kts 230°
2026-04-26 18:07 53.43584 -2.10536 2565 ft 180 kts 230°
2026-04-26 18:07 53.43060 -2.11616 2392 ft 177 kts 230°
2026-04-26 18:08 53.42062 -2.13675 2066 ft 163 kts 230°
2026-04-26 18:08 53.41366 -2.15113 1893 ft 157 kts 230°
2026-04-26 18:08 53.40682 -2.16525 1688 ft 157 kts 230°
2026-04-26 18:08 53.40006 -2.17917 1470 ft 148 kts 230°
2026-04-26 18:09 53.39390 -2.19198 1244 ft 137 kts 232°
2026-04-26 18:09 53.38797 -2.20447 1030 ft 136 kts 230°
2026-04-26 18:09 53.38208 -2.21654 883 ft 135 kts 230°
2026-04-26 18:09 53.37614 -2.22869 747 ft 135 kts 231°
2026-04-26 18:10 53.37026 -2.24094 580 ft 135 kts 230°
2026-04-26 18:10 53.36429 -2.25314 394 ft 134 kts 230°
2026-04-26 18:10 53.35846 -2.26516 269 ft 128 kts 231°
2026-04-26 18:10 53.35384 -2.27472 245 ft 81 kts 230°
2026-04-26 18:11 53.35107 -2.28053 234 ft 58 kts 231°
2026-04-26 18:11 53.34967 -2.28427 229 ft 29 kts 258°
2026-04-26 18:11 53.34940 -2.28701 223 ft 14 kts 267°
2026-04-26 18:11 53.34975 -2.28784 224 ft 6 kts 359°
2026-04-26 18:12 53.35020 -2.28740 226 ft 9 kts 42°
2026-04-26 18:12 53.35067 -2.28641 227 ft 12 kts 52°
2026-04-26 18:12 53.35124 -2.28524 229 ft 14 kts 50°
2026-04-26 18:12 53.35189 -2.28394 231 ft 14 kts 51°
2026-04-26 18:13 53.35249 -2.28272 234 ft 11 kts 43°
2026-04-26 18:13 53.35316 -2.28200 235 ft 11 kts 23°
2026-04-26 18:13 53.35399 -2.28164 235 ft 13 kts
2026-04-26 18:13 53.35462 -2.28142 236 ft 13 kts 16°
2026-04-26 18:14 53.35567 -2.28016 238 ft 14 kts 51°
2026-04-26 18:14 53.35623 -2.27909 238 ft 11 kts 35°
2026-04-26 18:14 53.35706 -2.27879 238 ft 12 kts
2026-04-26 18:14 53.35802 -2.27864 238 ft 14 kts
2026-04-26 18:15 53.35908 -2.27847 238 ft 15 kts
2026-04-26 18:15 53.36018 -2.27830 238 ft 15 kts 359°
2026-04-26 18:15 53.36101 -2.27906 237 ft 14 kts 316°
2026-04-26 18:15 53.36175 -2.28034 234 ft 16 kts 315°
2026-04-26 18:16 53.36268 -2.28188 227 ft 20 kts 315°
2026-04-26 18:16 53.36465 -2.28519 214 ft 18 kts 315°
2026-04-26 18:16 53.36544 -2.28655 215 ft 15 kts 315°
2026-04-26 18:17 53.36599 -2.28758 217 ft 11 kts 332°
2026-04-26 18:17 53.36656 -2.28729 217 ft 6 kts 45°
2026-04-26 18:17 53.36695 -2.28723 217 ft 5 kts 321°
2026-04-26 18:17 53.36718 -2.28770 218 ft 4 kts 312°
2026-04-26 18:18 53.36736 -2.28801 219 ft 0 kts 314°